• In Germany
  • List of Countries
  • For 7 days
  • Water Temperature
  • Satellite Maps
  • Weather Map
  • Weather Widgets
  • user-avatar
    Login

    Hourly Weather Ch'ŏngjin

    Today, 23 November, Thursday

    Time Temperature Precipitation Wind Pressure Humidity
    00:00 -7°C° 0 mm 7 mps 761 mmHg 51%
    01:00 -6°C° 0 mm 6 mps 761 mmHg 51%
    02:00 -7°C° 0 mm 5 mps 761 mmHg 50%
    03:00 -7°C° 0 mm 5 mps 761 mmHg 51%
    04:00 -7°C° 0 mm 5 mps 761 mmHg 51%
    05:00 -7°C° 0 mm 5 mps 761 mmHg 52%
    06:00 -8°C° 0 mm 4 mps 761 mmHg 52%
    07:00 -7°C° 0 mm 5 mps 761 mmHg 50%
    08:00 -7°C° 0 mm 5 mps 761 mmHg 48%
    09:00 -6°C° 0 mm 5 mps 761 mmHg 45%
    10:00 -6°C° 0 mm 5 mps 760 mmHg 42%
    11:00 -5°C° 0 mm 5 mps 760 mmHg 39%
    12:00 -4°C° 0 mm 5 mps 760 mmHg 36%
    13:00 -5°C° 0 mm 5 mps 759 mmHg 37%
    14:00 -5°C° 0 mm 5 mps 759 mmHg 38%
    15:00 -5°C° 0 mm 5 mps 759 mmHg 40%
    16:00 -6°C° 0 mm 6 mps 760 mmHg 43%
    17:00 -6°C° 0 mm 6 mps 760 mmHg 46%
    18:00 -8°C° 0 mm 7 mps 761 mmHg 49%
    19:00 -9°C° 0 mm 6 mps 761 mmHg 49%
    20:00 -9°C° 0 mm 6 mps 761 mmHg 49%
    21:00 -9°C° 0 mm 6 mps 761 mmHg 50%
    22:00 -10°C° 0 mm 5 mps 762 mmHg 50%
    23:00 -10°C° 0 mm 5 mps 762 mmHg 51%

    Tomorrow, 24 November, Friday

    Time Temperature Precipitation Wind Pressure Humidity
    00:00 -10°C° 0 mm 5 mps 762 mmHg 51%
    01:00 -10°C° 0 mm 5 mps 762 mmHg 51%
    02:00 -11°C° 0 mm 5 mps 762 mmHg 51%
    03:00 -10°C° 0 mm 4 mps 763 mmHg 51%
    04:00 -10°C° 0 mm 4 mps 762 mmHg 51%
    05:00 -11°C° 0 mm 4 mps 762 mmHg 51%
    06:00 -11°C° 0 mm 4 mps 762 mmHg 50%
    07:00 -10°C° 0 mm 4 mps 763 mmHg 48%
    08:00 -10°C° 0 mm 4 mps 763 mmHg 45%
    09:00 -9°C° 0 mm 4 mps 763 mmHg 42%
    10:00 -8°C° 0 mm 4 mps 763 mmHg 39%
    11:00 -6°C° 0 mm 3 mps 763 mmHg 36%
    12:00 -5°C° 0 mm 3 mps 762 mmHg 33%
    13:00 -5°C° 0 mm 4 mps 762 mmHg 34%
    14:00 -5°C° 0 mm 4 mps 762 mmHg 35%
    15:00 -5°C° 0 mm 4 mps 762 mmHg 36%
    16:00 -7°C° 0 mm 4 mps 763 mmHg 40%
    17:00 -8°C° 0 mm 4 mps 763 mmHg 45%
    18:00 -9°C° 0 mm 4 mps 764 mmHg 49%
    19:00 -10°C° 0 mm 5 mps 764 mmHg 50%
    20:00 -11°C° 0 mm 5 mps 765 mmHg 51%
    21:00 -11°C° 0 mm 5 mps 765 mmHg 52%
    22:00 -11°C° 0 mm 5 mps 766 mmHg 51%
    23:00 -10°C° 0 mm 4 mps 766 mmHg 51%

    Day after tomorrow, 25 November, Saturday

    Time Temperature Precipitation Wind Pressure Humidity
    00:00 -10°C° 0 mm 4 mps 766 mmHg 51%
    01:00 -10°C° 0 mm 4 mps 766 mmHg 50%
    02:00 -9°C° 0 mm 3 mps 766 mmHg 50%
    03:00 -9°C° 0 mm 3 mps 767 mmHg 50%
    04:00 -9°C° 0 mm 3 mps 766 mmHg 53%
    05:00 -9°C° 0 mm 3 mps 766 mmHg 55%
    06:00 -9°C° 0 mm 3 mps 766 mmHg 58%
    07:00 -8°C° 0 mm 3 mps 766 mmHg 57%
    08:00 -7°C° 0 mm 3 mps 765 mmHg 57%
    09:00 -6°C° 0 mm 3 mps 765 mmHg 57%
    10:00 -5°C° 0.1 mm 3 mps 764 mmHg 60%
    11:00 -2°C° 0.1 mm 3 mps 763 mmHg 63%
    12:00 -1°C° 0.1 mm 3 mps 763 mmHg 65%
    13:00 -1°C° 0.2 mm 3 mps 762 mmHg 67%
    14:00 -1°C° 0.2 mm 3 mps 761 mmHg 68%
    15:00 0°C° 0.2 mm 3 mps 760 mmHg 70%
    16:00 -1°C° 0.1 mm 3 mps 760 mmHg 73%
    17:00 -2°C° 0.1 mm 4 mps 760 mmHg 76%
    18:00 -3°C° 0.1 mm 4 mps 760 mmHg 79%
    19:00 -2°C° 0 mm 3 mps 761 mmHg 80%
    20:00 -4°C° 0 mm 3 mps 761 mmHg 80%
    21:00 -4°C° 0 mm 3 mps 762 mmHg 80%
    22:00 -3°C° 0 mm 2 mps 762 mmHg 80%
    23:00 -4°C° 0 mm 2 mps 763 mmHg 80%

    26 November, Sunday

    Time Temperature Precipitation Wind Pressure Humidity
    00:00 -4°C° 0 mm 2 mps 763 mmHg 80%
    01:00 -4°C° 0 mm 2 mps 763 mmHg 78%
    02:00 -4°C° 0 mm 2 mps 762 mmHg 76%
    03:00 -4°C° 0 mm 2 mps 762 mmHg 75%
    04:00 -5°C° 0.6 mm 3 mps 762 mmHg 79%
    05:00 -5°C° 0.6 mm 4 mps 761 mmHg 84%
    06:00 -6°C° 0.6 mm 5 mps 761 mmHg 89%
    07:00 -6°C° 0.5 mm 6 mps 761 mmHg 85%
    08:00 -6°C° 0.5 mm 6 mps 762 mmHg 81%
    09:00 -7°C° 0.5 mm 7 mps 762 mmHg 77%
    10:00 -7°C° 0.1 mm 8 mps 762 mmHg 69%
    11:00 -6°C° 0.1 mm 8 mps 763 mmHg 60%
    12:00 -6°C° 0.1 mm 9 mps 763 mmHg 52%
    13:00 -6°C° 0 mm 9 mps 764 mmHg 50%
    14:00 -6°C° 0 mm 9 mps 764 mmHg 48%
    15:00 -8°C° 0 mm 9 mps 765 mmHg 46%
    16:00 -8°C° 0 mm 8 mps 766 mmHg 50%
    17:00 -10°C° 0 mm 8 mps 767 mmHg 55%
    18:00 -11°C° 0 mm 7 mps 768 mmHg 59%
    19:00 -11°C° 0 mm 6 mps 769 mmHg 61%
    20:00 -11°C° 0 mm 6 mps 770 mmHg 62%
    21:00 -11°C° 0 mm 5 mps 771 mmHg 63%
    22:00 -11°C° 0 mm 4 mps 771 mmHg 62%
    23:00 -11°C° 0 mm 4 mps 772 mmHg 61%

    27 November, Monday

    Time Temperature Precipitation Wind Pressure Humidity
    00:00 -10°C° 0 mm 3 mps 772 mmHg 60%
    01:00 -9°C° 0 mm 3 mps 772 mmHg 58%
    02:00 -8°C° 0 mm 2 mps 772 mmHg 57%
    03:00 -8°C° 0 mm 2 mps 772 mmHg 55%
    04:00 -8°C° 0 mm 2 mps 772 mmHg 54%
    05:00 -8°C° 0 mm 3 mps 771 mmHg 52%
    06:00 -8°C° 0 mm 3 mps 771 mmHg 50%
    07:00 -7°C° 0 mm 4 mps 771 mmHg 48%
    08:00 -5°C° 0 mm 4 mps 771 mmHg 46%
    09:00 -4°C° 0 mm 5 mps 770 mmHg 45%
    10:00 -1°C° 0 mm 5 mps 769 mmHg 43%
    11:00 +1°C° 0 mm 5 mps 769 mmHg 42%
    12:00 +3°C° 0 mm 6 mps 768 mmHg 40%
    13:00 +5°C° 0 mm 5 mps 767 mmHg 42%
    14:00 +5°C° 0 mm 5 mps 766 mmHg 44%
    15:00 +6°C° 0 mm 5 mps 765 mmHg 46%
    16:00 +3°C° 0 mm 5 mps 765 mmHg 52%
    17:00 +1°C° 0 mm 5 mps 765 mmHg 57%
    18:00 -1°C° 0 mm 4 mps 765 mmHg 63%
    19:00 -1°C° 0 mm 4 mps 765 mmHg 62%
    20:00 -1°C° 0 mm 4 mps 765 mmHg 60%
    21:00 -1°C° 0 mm 4 mps 765 mmHg 58%
    22:00 0°C° 0 mm 3 mps 765 mmHg 57%
    23:00 +1°C° 0 mm 3 mps 765 mmHg 56%

    28 November, Tuesday

    Time Temperature Precipitation Wind Pressure Humidity
    00:00 +1°C° 0 mm 3 mps 765 mmHg 55%
    01:00 +1°C° 0 mm 3 mps 765 mmHg 57%
    02:00 0°C° 0 mm 3 mps 765 mmHg 59%
    03:00 +1°C° 0 mm 2 mps 765 mmHg 60%
    04:00 +1°C° 0 mm 2 mps 765 mmHg 64%
    05:00 +1°C° 0 mm 2 mps 765 mmHg 68%
    06:00 +1°C° 0 mm 2 mps 765 mmHg 71%
    07:00 +2°C° 0 mm 2 mps 765 mmHg 70%
    08:00 +3°C° 0 mm 2 mps 765 mmHg 69%
    09:00 +4°C° 0 mm 2 mps 765 mmHg 67%
    10:00 +5°C° 0 mm 2 mps 765 mmHg 64%
    11:00 +7°C° 0 mm 3 mps 764 mmHg 62%
    12:00 +9°C° 0 mm 3 mps 764 mmHg 59%
    13:00 +9°C° 0 mm 3 mps 763 mmHg 61%
    14:00 +9°C° 0 mm 3 mps 763 mmHg 64%
    15:00 +9°C° 0 mm 3 mps 763 mmHg 67%
    16:00 +7°C° 0 mm 3 mps 762 mmHg 72%
    17:00 +5°C° 0 mm 3 mps 762 mmHg 77%
    18:00 +5°C° 0 mm 2 mps 762 mmHg 83%
    19:00 +5°C° 0 mm 2 mps 762 mmHg 83%
    20:00 +5°C° 0 mm 2 mps 762 mmHg 83%
    21:00 +5°C° 0 mm 2 mps 761 mmHg 83%
    22:00 +4°C° 0 mm 3 mps 761 mmHg 83%
    23:00 +4°C° 0 mm 3 mps 761 mmHg 83%
    Show more